{"data":{"norad_id":66503,"epoch":"2026-05-25T02:27:48.487392Z","epoch_age_seconds":69373,"freshness":"FRESH","line1":"1 66503U 25263U   26145.10264453  .00011628  00000+0  43124-3 0  9995","line2":"2 66503  42.9996 279.2897 0000771 217.7120 142.3677 15.27591411 30582","mean_motion":15.27591411,"eccentricity":7.71e-5,"inclination_deg":42.9996,"raan_deg":279.2897,"arg_perigee_deg":217.712,"mean_anomaly_deg":142.3677,"bstar":0.00043124,"rev_number":3058,"period_min":94.266044547694,"perigee_km":482.48593279964,"apogee_km":483.54392242688,"semimajor_km":6861.1519276133,"source":"CELESTRAK","updated_at":"2026-05-25T13:38:21.245850Z"}}